TimePDT,TemperatureF,Dew PointF,Humidity,Sea Level PressureIn,VisibilityMPH,Wind Direction,Wind SpeedMPH,Gust SpeedMPH,PrecipitationIn,Events,Conditions,WindDirDegrees,DateUTC
12:53 AM,62.1,48.9,62,29.99,10.0,SSE,3.5,-,N/A,,Clear,160,2013-04-11 07:53:00
1:53 AM,61.0,48.9,64,29.99,10.0,Calm,Calm,-,N/A,,Clear,0,2013-04-11 08:53:00
2:53 AM,59.0,46.9,64,29.97,10.0,East,3.5,-,N/A,,Clear,90,2013-04-11 09:53:00
3:53 AM,59.0,44.1,58,29.95,10.0,Calm,Calm,-,N/A,,Clear,0,2013-04-11 10:53:00
4:53 AM,57.0,42.1,57,29.94,10.0,Calm,Calm,-,N/A,,Clear,0,2013-04-11 11:53:00
5:53 AM,55.9,39.0,53,29.93,10.0,East,3.5,-,N/A,,Clear,90,2013-04-11 12:53:00
6:53 AM,55.9,39.9,55,29.94,10.0,Calm,Calm,-,N/A,,Clear,0,2013-04-11 13:53:00
7:53 AM,62.1,39.9,44,29.94,10.0,Calm,Calm,-,N/A,,Clear,0,2013-04-11 14:53:00
8:53 AM,66.0,39.9,38,29.95,10.0,Calm,Calm,-,N/A,,Clear,0,2013-04-11 15:53:00
10:53 AM,75.0,36.0,24,29.91,10.0,SW,4.6,-,N/A,,Clear,220,2013-04-11 17:53:00
11:53 AM,78.1,37.0,23,29.88,10.0,SW,6.9,-,N/A,,Clear,220,2013-04-11 18:53:00
12:53 PM,73.9,48.9,41,29.86,10.0,SSW,12.7,17.3,N/A,,Clear,210,2013-04-11 19:53:00
1:53 PM,73.9,50.0,43,29.85,10.0,South,11.5,17.3,N/A,,Clear,180,2013-04-11 20:53:00
2:53 PM,73.9,48.9,41,29.82,10.0,SSW,10.4,-,N/A,,Clear,200,2013-04-11 21:53:00
3:53 PM,71.1,51.1,49,29.81,10.0,South,10.4,-,N/A,,Clear,190,2013-04-11 22:53:00
4:53 PM,66.9,52.0,59,29.80,10.0,SSW,9.2,-,N/A,,Clear,210,2013-04-11 23:53:00
5:53 PM,64.9,51.1,61,29.79,10.0,Variable,4.6,-,N/A,,Clear,0,2013-04-12 00:53:00
6:53 PM,64.0,51.1,63,29.79,10.0,SSW,8.1,-,N/A,,Clear,200,2013-04-12 01:53:00
7:53 PM,62.1,51.1,67,29.80,10.0,SSE,8.1,-,N/A,,Clear,150,2013-04-12 02:53:00
8:53 PM,61.0,51.1,70,29.81,10.0,South,5.8,-,N/A,,Partly Cloudy,180,2013-04-12 03:53:00
9:41 PM,60.8,51.8,72,29.83,10.0,South,4.6,-,N/A,,Mostly Cloudy,170,2013-04-12 04:41:00
9:53 PM,61.0,50.0,67,29.83,10.0,SSW,4.6,-,N/A,,Scattered Clouds,200,2013-04-12 04:53:00
10:14 PM,60.8,51.8,72,29.83,10.0,South,5.8,-,N/A,,Mostly Cloudy,180,2013-04-12 05:14:00
10:53 PM,61.0,51.1,70,29.83,10.0,SSW,4.6,-,N/A,,Overcast,200,2013-04-12 05:53:00
11:53 PM,61.0,50.0,67,29.82,10.0,SSW,4.6,-,N/A,,Overcast,210,2013-04-12 06:53:00